Location: Cork
(51.8990°N, 8.4960°W)
Time: 20:08:19
(UTC+01:00)

Iridium 66 - Visible Passes

Search period start: 01 September 2014 00:00
Search period end: 11 September 2014 00:00
Orbit: 776 x 779 km, 86.4° (Epoch: 01 September)

Date Brightness Start Highest point End Pass type
(mag) Time Alt. Az. Time Alt. Az. Time Alt. Az.
01 Sep 6.6 21:35:44 11° SSE 21:40:19 38° E 21:45:08 10° NNE visible
01 Sep 7.4 23:16:20 10° SW 23:21:06 35° WNW 23:25:53 10° N visible
02 Sep 7.2 21:02:58 10° SE 21:07:03 24° ENE 21:11:08 10° NNE visible
02 Sep 6.6 22:42:20 10° SSW 22:47:23 58° W 22:52:33 10° N visible
03 Sep 8.9 00:28:34 10° WNW 00:29:21 10° WNW 00:30:08 10° NW visible
03 Sep 6.0 22:08:35 10° S 22:13:48 86° E 22:19:03 10° N visible
03 Sep 8.6 23:51:57 10° WSW 23:55:17 17° WNW 23:58:38 10° NNW visible
04 Sep 6.2 21:35:18 10° SSE 21:40:20 52° E 21:45:23 10° NNE visible
04 Sep 8.0 23:17:00 10° SW 23:21:22 27° WNW 23:25:46 10° NNW visible
05 Sep 6.8 21:02:26 10° SE 21:06:59 32° E 21:11:33 10° NNE visible
05 Sep 7.1 22:42:38 10° SSW 22:47:35 43° WNW 22:52:33 10° N visible
06 Sep 6.3 22:08:43 10° SSW 22:13:55 71° W 22:19:09 10° N visible
06 Sep 8.8 23:53:26 10° W 23:55:41 13° WNW 23:57:56 10° NW visible
07 Sep 6.0 21:35:12 10° S 21:40:22 71° E 21:45:35 10° N visible
07 Sep 8.4 23:17:52 10° WSW 23:21:41 20° WNW 23:25:31 10° NNW visible
08 Sep 6.4 21:02:04 10° SSE 21:06:57 42° E 21:11:51 10° NNE visible
08 Sep 7.7 22:43:10 10° SW 22:47:49 32° WNW 22:52:29 10° NNW visible
09 Sep 7.0 20:29:23 10° SE 20:33:39 26° E 20:37:55 10° NNE visible
09 Sep 6.8 22:09:00 10° SSW 22:14:04 52° W 22:19:11 10° N visible
10 Sep 6.0 21:35:15 10° S 21:40:27 86° W 21:45:43 10° N visible
10 Sep 8.8 23:19:01 10° W 23:22:02 15° WNW 23:25:04 10° NNW visible
